Showing default

COSMOS 2436 (GLONASS), 32395

Orbit data source: Space-Track

COSMOS 2436 (GLONASS), 32395 is a Commonwealth of Independent States-origin payload satellite in MEO that was launched on Tue, 25 Dec 2007 UTC via a PROTON-M/DM-2 launch vehicle from the Tyuratam Missile And Space Complex (TTMTR). Payload-class satellites include a variety of spacecraft equipped with specific instruments for various scientific and technological missions. These include communications satellites like Starlink; space stations such as the ISS; scientific satellites like the Hubble; Earth observation satellites from companies like Planet Labs, Umbra, and HawkEye 360; GPS; miniature CubeSats for education and research; and military/defense satellites.

Loading next visibility...
Identifier
32395, 2007-065C
Orbit
MEO
Country
Flag of CISCIS
Related business
Manufacturer
Resehetnev ISS
Mission
Operational Defense Navigation
Bus & Motor
URAGAN, Unknown motor
Mass
1,450 kg wet, ~1,200 kg dry
Launch date (UTC)
2007-12-25 (18 years ago)
Launch vehicle
PROTON-M/DM-2
Launch site
Tyuratam Missile And Space Complex (TTMTR)
Object type
Payload
Rocket body
Debris
Shape & HBR
Cyl + 1 Ant + 2 Pan, 3.9 m
Radar Cross Section
8.467 m², Large (>1 m²)

Expand to show TLE details & history
Last TLE update: 1 day ago

TLE from 1 day ago
0 COSMOS 2436 (GLONASS)
1 32395U 07065C   26172.16299959  .00000072  00000-0  00000+0 0  9996
2 32395  64.3269 191.8539 0017273 353.7680  46.7887  2.13100047143817
Epoch: 2026-06-21T03:54Z
TLE epoch observation values (Epoch: 2026-06-21T03:54:43.164Z)
Latitude
36.0038°
Longitude
-115.76116°
Altitude
19,103.124 km
Speed
3.958 km/s
True Right ascension
14h 09m 08s
True Declination
35° 57' 29"
Sunlit
Object was in daylight at epoch
Visualization orbit readout
Latitude
Unknown
Longitude
Unknown
Altitude
Unknown
Speed
Unknown
Apparent Right ascension
Unknown
Apparent Declination
Unknown
Sunlit
N/A
Visualization observer readout
Local Sidereal Time
00:39:46
Azimuth
Unknown
Elevation
Unknown
Doppler factor
Unknown
Orbital elements
Apogee altitude
19,173.741 km
Perigee altitude
19,085.622 km
Semi-major axis
25,507.819 km
Eccentricity
0.00173
Inclination
64.3269°
RAAN
191.8539°
Arg. of periapsis
353.768°
True anomaly
46.93317°
Mean anomaly
46.7887°
Eccentric anomaly
46.86092°
Mean motion
0.53276 °/min
Orbital period
675.72 mins
BSTAR
0
Loading maneuver chart data...
Computing Atmospheric mass density...
Loading historical data...
Loading historical data...
Loading historical data...
Loading historical data...
Loading historical data...
Loading historical data...
Loading historical data...

Documentation

Showing up to 5 results
|